Bowling Green, KY

3:30 AM CDT on May 27, 2018 (GMT -0500)
Bowling Green-Warren County Regional

Weather History for KBWG - September, 2012

Change the Weather History Date:

Thursday, September 6, 2012

  Actual Average Record
Temperature  
Mean Temperature 80 °F 74 °F  
Max Temperature 90 °F 86 °F 104 °F (1954)
Min Temperature 69 °F 62 °F 46 °F (1988)
Degree Days  
Heating Degree Days 0 0  
Month to date heating degree days 0 0  
Since 1 July heating degree days 0 1  
Cooling Degree Days 15 9  
Month to date cooling degree days 90 57  
Year to date cooling degree days 1825 1326  
Growing Degree Days 30 (Base 50)    
Moisture  
Dew Point 69 °F    
Average Humidity 75    
Maximum Humidity 100    
Minimum Humidity 50    
Precipitation  
Precipitation 0.00 in 0.13 in 1.45 in (1977)
Month to date precipitation 1.96 0.74  
Year to date precipitation 28.78 34.30  
Snow  
Snow 0.00 in 0.00 in 0.00 in ()
Month to date snowfall 0.0 0.0  
Since 1 July snowfall 0.0 0.0  
Since 1 September snowfall 0.0 0.0  
Snow Depth 0.00 in    
Sea Level Pressure  
Sea Level Pressure 29.94 in    
Wind  
Wind Speed 2 mph (SW)    
Max Wind Speed 13 mph    
Max Gust Speed 17 mph    
Visibility 6 miles    
Events Fog    
T = Trace of Precipitation, MM = Missing Value Source: NWS Daily Summary

Daily Weather History Graph

Daily Weather History Graph

Search for Another Location

Airport or City:

Astronomy

Sep. 06, 2012 Rise Set
Actual Time 6:20 AM CDT 7:06 PM CDT
Civil Twilight 5:54 AM CDT 7:32 PM CDT
Nautical Twilight 5:23 AM CDT 8:03 PM CDT
Astronomical Twilight 4:51 AM CDT 8:35 PM CDT
Moon 10:26 PM CDT (9/6) 12:09 PM CDT (9/6)
Length of Visible Light 13h 37m
Length of Day
12h 45m
Waning Gibbous, 67% of the Moon is Illuminated
Sep 6
Waning Gibbous
Sep 8
Last Quarter
Sep 15
New
Sep 22
First Quarter
Sep 29
Full

Hourly Weather History & Observations

Time (CDT) Temp. Heat Index Dew Point Humidity Pressure Visibility Wind Dir Wind Speed Gust Speed Precip Events Conditions
12:18 AM 73.4 °F - 69.8 °F 88% 29.92 in 10.0 mi SSW 4.6 mph - N/A   Mostly Cloudy
12:33 AM 73.4 °F - 69.8 °F 88% 29.92 in 10.0 mi SW 3.5 mph - N/A   Mostly Cloudy
12:53 AM 73.0 °F - 69.1 °F 87% 29.91 in 10.0 mi SW 3.5 mph - N/A   Scattered Clouds
1:53 AM 71.1 °F - 69.1 °F 93% 29.89 in 7.0 mi Calm Calm - 0.01 in   Clear
2:01 AM 69.8 °F - 68.0 °F 94% 29.91 in 1.8 mi Calm Calm - N/A   Clear
2:03 AM 69.8 °F - 68.0 °F 94% 29.91 in 1.0 mi NE 3.5 mph - N/A   Mist
2:06 AM 69.8 °F - 66.2 °F 88% 29.91 in 0.5 mi NE 3.5 mph - N/A Fog Fog
2:37 AM 69.8 °F - 68.0 °F 94% 29.91 in 0.2 mi Calm Calm - N/A Fog Fog
2:53 AM 71.1 °F - 69.1 °F 93% 29.90 in 0.5 mi Calm Calm - N/A Fog Fog
3:06 AM 71.6 °F - 69.8 °F 94% 29.92 in 1.0 mi Calm Calm - N/A   Mist
3:13 AM 71.6 °F - 69.8 °F 94% 29.91 in 2.0 mi Calm Calm - N/A   Overcast
3:21 AM 71.6 °F - 69.8 °F 94% 29.92 in 4.0 mi Calm Calm - N/A   Overcast
3:35 AM 71.6 °F - 69.8 °F 94% 29.92 in 1.8 mi West 4.6 mph - N/A   Overcast
3:41 AM 71.6 °F - 69.8 °F 94% 29.92 in 0.8 mi West 3.5 mph - N/A   Overcast
3:50 AM 71.6 °F - 69.8 °F 94% 29.92 in 0.5 mi West 3.5 mph - N/A Fog Fog
3:53 AM 71.1 °F - 69.1 °F 93% 29.90 in 0.5 mi West 3.5 mph - N/A Fog Fog
4:53 AM 70.0 °F - 69.1 °F 97% 29.92 in 0.5 mi Calm Calm - N/A Fog Fog
5:30 AM 69.8 °F - 68.0 °F 94% 29.94 in 0.8 mi Calm Calm - N/A   Overcast
5:53 AM 70.0 °F - 68.0 °F 93% 29.94 in 1.0 mi Calm Calm - N/A   Overcast
6:07 AM 69.8 °F - 68.0 °F 94% 29.95 in 0.5 mi Calm Calm - N/A Fog Fog
6:20 AM 69.8 °F - 68.0 °F 94% 29.96 in 1.0 mi Calm Calm - N/A   Overcast
6:53 AM 70.0 °F - 68.0 °F 93% 29.96 in 1.0 mi Calm Calm - N/A   Overcast
7:02 AM 69.8 °F - 68.0 °F 94% 29.98 in 2.0 mi Calm Calm - N/A   Overcast
7:21 AM 69.8 °F - 68.0 °F 94% 29.98 in 4.0 mi Calm Calm - N/A   Overcast
7:53 AM 71.1 °F - 68.0 °F 90% 29.97 in 5.0 mi Calm Calm - N/A   Overcast
8:45 AM 73.4 °F - 69.8 °F 88% 29.99 in 8.0 mi SSE 3.5 mph - N/A   Overcast
8:53 AM 73.0 °F - 68.0 °F 84% 29.98 in 8.0 mi Calm Calm - N/A   Mostly Cloudy
9:30 AM 75.2 °F - 69.8 °F 83% 30.01 in 10.0 mi Calm Calm - N/A   Scattered Clouds
9:42 AM 75.2 °F - 69.8 °F 83% 30.01 in 10.0 mi Calm Calm - N/A   Mostly Cloudy
9:53 AM 75.9 °F - 69.1 °F 79% 30.00 in 10.0 mi Calm Calm - N/A   Mostly Cloudy
10:08 AM 77.0 °F - 69.8 °F 78% 30.01 in 10.0 mi Calm Calm - N/A   Scattered Clouds
10:53 AM 80.1 °F 82.9 °F 69.1 °F 69% 29.99 in 10.0 mi Calm Calm - N/A   Partly Cloudy
11:53 AM 82.0 °F 85.9 °F 70.0 °F 67% 29.98 in 10.0 mi East 4.6 mph - N/A   Clear
12:53 PM 84.9 °F 90.1 °F 71.1 °F 63% 29.97 in 10.0 mi South 6.9 mph - N/A   Partly Cloudy
1:53 PM 86.0 °F 90.7 °F 70.0 °F 59% 29.95 in 10.0 mi Variable 3.5 mph - N/A   Clear
2:53 PM 88.0 °F 90.7 °F 66.9 °F 49% 29.94 in 10.0 mi Calm Calm - N/A   Clear
3:53 PM 89.1 °F 93.7 °F 69.1 °F 52% 29.92 in 10.0 mi South 3.5 mph - N/A   Clear
4:53 PM 90.0 °F 93.6 °F 68.0 °F 48% 29.90 in 10.0 mi Variable 3.5 mph - N/A   Clear
5:53 PM 88.0 °F 91.4 °F 68.0 °F 51% 29.91 in 10.0 mi SW 5.8 mph - N/A   Partly Cloudy
6:53 PM 84.9 °F 88.8 °F 69.1 °F 59% 29.93 in 10.0 mi WSW 3.5 mph - N/A   Clear
7:53 PM 82.0 °F 85.9 °F 70.0 °F 67% 29.93 in 10.0 mi Calm Calm - N/A   Clear
8:53 PM 80.1 °F 83.2 °F 70.0 °F 71% 29.95 in 10.0 mi Calm Calm - N/A   Clear
10:53 PM 79.0 °F - 70.0 °F 74% 29.94 in 10.0 mi West 8.1 mph 17.3 mph N/A   Mostly Cloudy
11:53 PM 77.0 °F - 66.9 °F 71% 29.92 in 10.0 mi Calm Calm - N/A   Clear